Location: Caltech
(34.1382°N, 118.1253°W)
Time: 03:24:23
(UTC-08:00)

CZ-2C R/B - Visible Passes

Search period start: 25 November 2017 00:00
Search period end: 05 December 2017 00:00
Orbit: 669 x 784 km, 98.1° (Epoch: 24 November)

Date Brightness Start Highest point End Pass type
(mag) Time Alt. Az. Time Alt. Az. Time Alt. Az.
25 Nov 3.0 05:12:12 10° NNE 05:17:17 62° E 05:22:11 10° S visible
25 Nov 5.5 17:57:33 10° SW 18:00:36 16° W 18:03:42 10° NW visible
26 Nov 5.1 04:25:27 10° NE 04:29:05 19° E 04:32:37 10° SE visible
26 Nov 2.9 06:02:41 10° N 06:07:24 39° WNW 06:11:59 10° SW visible
26 Nov 3.6 17:07:30 10° S 17:12:20 51° W 17:17:21 10° NNW visible
27 Nov 2.9 05:14:29 10° NNE 05:19:34 66° E 05:24:28 10° S visible
27 Nov 5.6 18:00:02 10° SW 18:02:55 15° W 18:05:51 10° WNW visible
28 Nov 5.0 04:27:38 10° NE 04:31:23 21° E 04:35:01 10° SE visible
28 Nov 3.0 06:05:03 10° N 06:09:41 36° WNW 06:14:11 10° SW visible
28 Nov 3.7 17:09:48 10° S 17:14:38 48° W 17:19:37 10° NNW visible
29 Nov 2.7 05:16:47 10° NNE 05:21:52 70° ESE 05:26:44 10° S visible
29 Nov 5.6 18:02:32 10° SW 18:05:14 14° W 18:07:58 10° WNW visible
30 Nov 4.9 04:29:51 10° NE 04:33:41 22° E 04:37:24 10° SE visible
30 Nov 3.0 06:07:24 10° N 06:11:57 34° WNW 06:16:21 10° SW visible
30 Nov 3.9 17:12:07 10° S 17:16:56 45° W 17:21:53 10° NNW visible
01 Dec 2.6 05:19:06 10° NNE 05:24:09 75° ESE 05:29:00 10° S visible
01 Dec 5.7 18:05:04 10° WSW 18:07:33 14° W 18:10:03 10° WNW visible
02 Dec 4.8 04:32:04 10° NE 04:35:59 23° E 04:39:47 10° SSE visible
02 Dec 3.1 06:09:46 10° N 06:14:13 32° WNW 06:18:31 10° SW visible
02 Dec 4.0 17:14:26 10° S 17:19:14 43° W 17:24:10 10° NNW visible
03 Dec 2.5 05:21:23 10° NNE 05:26:25 80° E 05:31:15 10° S visible
03 Dec 5.7 18:07:39 10° WSW 18:09:52 13° W 18:12:06 10° WNW visible
04 Dec 4.7 04:34:16 10° NE 04:38:16 24° E 04:42:09 10° SSE visible
04 Dec 3.2 06:12:08 10° N 06:16:28 30° WNW 06:20:39 10° SW visible
04 Dec 4.1 17:16:46 10° SSW 17:21:33 40° W 17:26:25 10° NNW visible
